Location: Piano di Satadi
(39.7500°N, 8.4500°E)
Time: 20:58:07
(UTC+00:00)

Daily predictions for brighter satellites

Satellite Brightness Start Highest point End
(mag) Time Altitude Azimuth Time Altitude Azimuth Time Altitude Azimuth
Meteor 2-2 Rocket 4.5 16:27:12 10° S 16:33:11 88° W 16:39:07 10° N
YAOGAN 6 2.6 16:29:58 10° SSE 16:33:37 68° ENE 16:37:15 10° N
Abrixas rocket 2.5 16:31:35 10° NW 16:34:09 33° NNE 16:36:42 10° E
Cosmos 1500 Rocket 3.5 16:30:48 10° N 16:35:12 69° E 16:39:36 10° SSE
CZ-4C R/B 3.9 16:37:02 10° N 16:40:34 53° WNW 16:44:06 10° SSW
NOSS 2-1 (C) 4.5 16:35:49 10° NNW 16:41:11 70° NE 16:48:49 10° SE
Cosmos 405 Rocket 2.7 16:39:29 10° N 16:43:24 75° E 16:47:22 10° SSE
Cosmos 389 Rocket 3.2 16:41:51 10° SSE 16:44:54 30° E 16:47:58 10° NNE
ADEOS Rocket 4.1 16:38:18 10° N 16:45:53 64° WNW 16:53:31 10° SSW
NOSS 2-1 (D) 4.5 16:41:14 10° NNW 16:46:40 77° NE 16:54:23 10° SE
Cosmos 1943 Rocket 3.9 16:46:22 10° NNE 16:48:28 12° NE 16:50:05 11° ENE
H-2A R/B 3.0 16:44:27 10° S 16:48:48 67° WSW 16:53:03 10° NNW
BREEZE-M DEB (TANK) 3.8 16:49:39 10° WNW 16:51:21 18° NNW 16:52:59 10° NNE
SL-16 R/B 3.1 16:46:57 10° SSE 16:51:46 30° ESE 16:56:35 10° NE
Cosmos 1867 4.0 16:46:52 10° S 16:51:58 44° ESE 16:57:07 10° NE
Cosmos 1689 Rocket 3.9 16:53:23 13° E 16:53:41 13° E 16:55:13 10° SE
CZ-2C R/B 4.3 16:50:53 10° ESE 16:54:12 17° ENE 16:57:24 10° NNE
USA 215 3.3 16:48:32 10° NE 16:55:07 86° SE 17:01:40 10° SW
Okean-O 4.1 16:52:53 10° E 16:55:31 16° ENE 16:58:08 10° NNE
Cosmos 1743 Rocket 4.1 16:53:05 10° NNW 16:57:31 64° W 17:01:54 10° S
COSMO-SKYMED 1 3.4 16:53:51 10° NE 16:57:43 31° E 17:01:33 10° SSE
ATLAS 5 CENTAUR R/B 4.4 16:53:38 10° NW 16:59:01 34° WSW 17:05:03 10° S
Cosmos 2298 Rocket 4.1 16:54:06 10° NNW 16:59:25 83° WSW 17:04:43 10° SSE
AQUARIUS 4.1 16:54:58 10° SSE 16:59:28 82° ENE 17:03:58 10° N
Cosmos 2150 Rocket 4.0 16:55:38 10° NNW 17:00:49 88° WSW 17:05:57 10° SSE
Cosmos 1818 3.5 16:56:43 10° NNW 17:02:12 69° ENE 17:07:36 10° SE
Cosmos 1606 2.7 16:58:38 10° S 17:02:27 60° E 17:06:18 10° NNE
Okean O Rocket 1.7 17:02:09 10° S 17:06:28 82° WSW 17:10:52 10° NNW
Sich 1 3.1 17:02:23 10° N 17:06:43 55° E 17:10:58 10° SSE
BREEZE-M TANK 2.7 17:01:34 10° WNW 17:07:08 79° SSW 17:10:22 10° ESE
Cosmos 2333 Rocket 4.3 17:03:24 10° WSW 17:07:45 22° NW 17:12:07 10° N
Cosmos 1782 4.3 17:05:22 10° SE 17:07:36 17° E 17:07:36 17° E
Helios 1A Rocket 4.2 17:07:32 18° ENE 17:08:06 18° ENE 17:10:55 10° NNE
OE (NEXTSAT) 4.2 17:04:46 10° WSW 17:08:14 86° SSE 17:10:22 22° ENE
ISS -2.2 17:08:20 10° W 17:11:18 28° NNW 17:13:33 14° NNE
Cosmos 2366 rocket 4.5 17:05:53 10° N 17:11:30 35° ENE 17:17:04 10° SE
Feng Yun 1-1 Rocket 4.4 17:08:35 10° SSE 17:14:16 57° ENE 17:19:51 10° N
Cosmos 1125 Rocket 3.4 17:10:25 10° NNW 17:15:38 88° ENE 17:20:51 10° SSE
Cosmos 1356 3.4 17:13:01 10° N 17:16:22 52° ENE 17:19:43 10° SSE
Cosmos 1805 Rocket 3.7 17:13:10 10° N 17:17:38 80° W 17:22:03 10° S
SAR-Lupe-4 3.8 17:15:58 14° NNE 17:18:55 48° E 17:22:23 10° S
Cosmos 1151 Rocket 3.3 17:15:39 10° SSE 17:19:41 41° E 17:23:24 12° NNE
CZ-4B R/B 1.4 17:18:04 10° N 17:21:07 68° WNW 17:24:11 10° SSW
Cosmos 2278 Rocket 2.8 17:17:15 10° NNW 17:22:51 61° WSW 17:28:25 10° S
IRS-1C Rocket 4.2 17:18:39 10° SE 17:23:44 51° ENE 17:28:51 10° N
Cosmos 1666 Rocket 3.6 17:19:32 10° N 17:23:52 53° E 17:28:11 10° SSE
Cosmos 1328 Rocket 3.8 17:21:32 10° SSE 17:25:35 42° E 17:28:37 17° NNE
USA 267 3.7 17:21:44 19° E 17:26:02 42° NNE 17:32:05 10° NW
Lacrosse 5 rocket 1.4 17:23:35 10° SSW 17:27:07 45° SE 17:28:08 34° E
Cosmos 962 Rocket 4.5 17:23:26 10° N 17:29:45 88° W 17:35:58 10° S
FALCON 9 R/B 2.0 17:31:04 10° SW 17:32:57 23° SSE 17:33:18 23° SSE
CZ-2D R/B 3.3 17:29:48 10° SSE 17:33:28 50° ENE 17:37:11 10° N
ERS-2 2.8 17:30:52 10° N 17:34:28 56° WNW 17:38:02 10° SSW
SAR-Lupe-1 3.9 17:33:32 18° NNE 17:36:05 79° ESE 17:39:39 10° S
Cosmos 2341 Rocket 4.0 17:29:47 10° N 17:36:06 88° W 17:42:26 10° S
SL-24 R/B 3.7 17:32:45 13° NNE 17:36:15 68° E 17:39:57 10° S
EO 1 Delta rocket 4.5 17:30:53 10° NNE 17:36:17 62° E 17:43:06 10° S
CZ-4 R/B 2.5 17:38:23 25° NNE 17:38:23 25° NNE 17:40:26 10° N
Meteor 1-25 Rocket 4.2 17:31:14 10° N 17:36:48 60° ENE 17:42:23 10° SSE
Meteor 1-4 Rocket 3.6 17:33:34 10° SSE 17:35:58 29° SE 17:35:58 29° SE
CZ-3B R/B 1.9 17:39:00 10° SSW 17:42:22 36° SSE 17:42:22 36° SSE
BREEZE-M DEB (TANK) 3.6 17:41:28 10° W 17:43:13 21° NNW 17:43:13 21° NNW
SKYMED 2 3.7 17:41:33 10° N 17:45:53 74° WNW 17:50:12 10° SSW
USA 81 3.9 17:42:20 10° N 17:47:39 83° E 17:52:55 10° S
Cosmos 2237 Rocket 3.7 17:42:53 10° WSW 17:47:54 33° WNW 17:52:58 10° N
Cosmos 1939 Rocket 3.0 17:45:20 10° S 17:49:09 68° W 17:53:01 10° NNW
SL-24 DEB 4.2 17:44:39 10° N 17:49:24 65° E 17:54:05 10° S
Cosmos 2285 Rocket 4.0 17:44:52 10° NNW 17:51:12 60° ENE 17:57:26 10° SSE
H-2A R/B 2.5 17:52:26 40° ENE 17:52:26 40° ENE 17:57:02 10° N
X-37B 3.0 17:50:05 10° S 17:51:00 14° S 17:51:00 14° S
Cosmos 1633 Rocket 3.0 17:50:11 10° N 17:54:34 83° W 17:58:55 10° S
Nadezhda 3 Rocket 4.5 17:49:33 10° SSE 17:55:06 37° E 17:55:06 37° E
Cosmos 773 Rocket 3.9 17:51:27 10° SSW 17:56:41 77° ESE 17:59:15 31° NNE
USA 281 3.1 17:53:26 10° SSE 17:59:58 75° ENE 18:06:32 10° NNW
SL-8 Rocket 4.1 17:54:01 10° N 18:00:15 76° W 18:06:30 10° S
Cosmos 864 Rocket 4.4 17:53:57 10° N 18:00:19 84° E 18:06:34 10° S
Cosmos 2181 Rocket 4.4 17:56:39 10° SSW 18:03:02 66° W 18:09:25 10° N
Cosmos 2369 Rocket 3.6 17:59:38 10° N 18:02:10 21° NNE 18:02:10 21° NNE
MOS 1 Rocket 3.5 18:03:47 22° NNE 18:07:26 79° ESE 18:12:51 10° S
Abrixas rocket 4.2 18:06:41 10° W 18:08:24 23° WSW 18:08:24 23° WSW
YAOGAN 1 3.6 18:21:23 35° NNW 18:21:23 35° NNW 18:23:58 10° NNW
SL-08 R/B 4.3 18:22:49 10° N 18:29:00 90° ENE 18:35:07 10° S
Cosmos 2297 4.0 18:24:27 10° NNW 18:30:05 66° WSW 18:34:10 19° S
Okean-O 3.5 18:27:17 10° S 18:31:34 49° W 18:35:52 10° NNW
Cosmos 1943 Rocket 2.6 18:27:36 10° NNW 18:31:41 50° N 18:31:41 50° N
Meteor 1-14 Rocket 4.3 18:27:29 10° N 18:33:26 83° W 18:39:25 10° S
Cosmos 44 3.7 18:28:06 10° NNW 18:32:39 66° NNW 18:32:39 66° NNW
CZ-2C R/B 3.6 18:28:33 10° S 18:33:40 55° W 18:38:34 10° NNW
Cosmos 1515 Rocket 4.4 18:30:28 10° SSW 18:34:01 47° WSW 18:34:01 47° WSW
SL-16 R/B 3.4 18:30:29 10° SW 18:35:42 38° WNW 18:38:47 22° N
USA 215 4.4 18:35:12 26° NNE 18:37:40 34° NNW 18:43:22 10° W
Cosmos 1538 Rocket 4.4 18:39:15 10° SSW 18:43:58 62° WSW 18:43:58 62° WSW
Lacrosse 5 rocket 4.4 19:03:37 10° W 19:03:47 11° W 19:03:47 11° W
USA 267 3.5 19:09:07 63° WSW 19:09:07 63° WSW 19:15:19 10° NW
ATLAS CENTAUR R/B 4.0 19:10:53 10° NW 19:26:53 64° WSW 19:27:28 62° SW
H-2A R/B 4.2 19:33:04 22° WNW 19:33:04 22° WNW 19:35:56 10° NW
